Location: Palo Alto
(37.4420°N, 122.1420°W)
Time: 23:59:58
(UTC-07:00)

ISS - All Passes

Search period start: 30 October 2014 00:00
Search period end: 08 November 2014 23:00
Orbit: 412 x 417 km, 51.6° (Epoch: 30 October)

Date Brightness Start Highest point End Pass type
(mag) Time Alt. Az. Time Alt. Az. Time Alt. Az.
30 Oct - 09:58:42 10° S 10:01:27 25° SE 10:04:14 10° ENE daylight
30 Oct - 11:35:03 10° W 11:38:03 31° NNW 11:41:05 10° NNE daylight
30 Oct - 16:28:56 10° NNW 16:31:27 20° NNE 16:33:59 10° ENE daylight
30 Oct - 18:05:05 10° WNW 18:08:21 53° SW 18:11:36 10° SSE daylight
31 Oct - 09:10:49 10° SSE 09:12:30 13° SE 09:14:11 10° E daylight
31 Oct - 10:45:35 10° WSW 10:48:50 54° NW 10:52:07 10° NE daylight
31 Oct - 12:24:49 10° NW 12:26:08 12° NNW 12:27:28 10° N daylight
31 Oct - 15:40:12 10° NNW 15:42:05 14° NNE 15:43:58 10° ENE daylight
31 Oct - 17:15:54 10° NW 17:19:14 79° NE 17:22:34 10° SE daylight
01 Nov - 09:56:21 10° SW 09:59:39 80° SE 10:02:59 10° NE daylight
01 Nov - 11:34:33 10° WNW 11:36:42 16° NNW 11:38:51 10° NNE daylight
01 Nov - 14:51:46 10° N 14:52:37 11° NNE 14:53:28 10° NNE daylight
01 Nov - 16:26:48 10° NW 16:30:01 42° NE 16:33:12 10° ESE daylight
01 Nov - 18:04:11 10° W 18:06:27 17° SW 18:08:43 10° S daylight
02 Nov - 08:07:23 10° SSW 08:10:30 40° SE 08:13:38 10° ENE daylight
02 Nov - 09:44:35 10° W 09:47:17 23° NNW 09:50:00 10° NNE daylight
02 Nov - 14:37:48 10° NNW 14:40:40 26° NNE 14:43:33 10° E daylight
02 Nov - 16:14:21 10° WNW 16:17:22 32° SW 16:20:22 10° SSE daylight
03 Nov - 07:18:48 10° S 07:21:22 21° SE 07:23:57 10° E daylight
03 Nov - 08:54:48 10° WSW 08:57:53 35° NW 09:00:59 10° NE daylight
03 Nov - 13:48:51 10° NNW 13:51:14 18° NNE 13:53:36 10° ENE daylight
03 Nov - 15:24:53 10° NW 15:28:11 63° SW 15:31:28 10° SE daylight
04 Nov - 06:31:11 10° SSE 06:32:16 11° SE 06:33:21 10° ESE daylight
04 Nov - 08:05:15 10° WSW 08:08:31 63° NW 08:11:50 10° NE daylight
04 Nov - 09:44:11 10° NW 09:45:45 13° NNW 09:47:19 10° N daylight
04 Nov - 13:00:02 10° N 13:01:41 13° NNE 13:03:20 10° NE daylight
04 Nov - 14:35:34 10° NW 14:38:53 67° NE 14:42:11 10° ESE daylight
04 Nov - 16:14:17 10° WSW 16:15:08 11° SW 16:15:59 10° SW daylight
05 Nov - 07:15:55 10° SW 07:19:12 67° SE 07:22:30 10° NE daylight
05 Nov - 08:53:51 10° WNW 08:56:10 17° NNW 08:58:28 10° NNE daylight
05 Nov - 13:46:21 10° NW 13:49:29 37° NE 13:52:36 10° ESE daylight
05 Nov - 15:23:27 10° W 15:25:58 20° SW 15:28:30 10° S daylight
06 Nov - 06:26:53 10° SSW 06:29:54 33° SE 06:32:55 10° ENE daylight
06 Nov - 08:03:47 10° W 08:06:36 25° NNW 08:09:26 10° NNE daylight
06 Nov - 12:57:12 10° NNW 12:59:57 23° NNE 13:02:42 10° E daylight
06 Nov - 14:33:36 10° WNW 14:36:43 38° SW 14:39:49 10° SSE daylight
07 Nov - 05:38:19 10° S 05:40:37 18° SE 05:42:56 10° E visible
07 Nov - 07:13:54 10° WSW 07:17:04 41° NW 07:20:14 10° NE daylight
07 Nov - 08:53:47 10° NNW 08:54:27 10° NNW 08:55:08 10° N daylight
07 Nov - 12:08:08 10° NNW 12:10:20 16° NNE 12:12:31 10° ENE daylight
07 Nov - 13:44:01 10° NW 13:47:21 77° SW 13:50:39 10° SE daylight
08 Nov - 06:24:15 10° SW 06:27:33 76° NW 06:30:53 10° NE daylight
08 Nov - 08:02:54 10° NW 08:04:42 14° NNW 08:06:30 10° N daylight
08 Nov - 11:19:13 10° N 11:20:36 12° NNE 11:21:58 10° NE daylight
08 Nov - 12:54:35 10° NW 12:57:52 55° NE 13:01:08 10° ESE daylight
08 Nov - 14:32:34 10° W 14:34:10 13° SW 14:35:46 10° SSW daylight
